Home   Weather   Lindau (Bodensee)   Past weeks

Flag for Germany Past Weather in Lindau (Bodensee), Bavaria, Germany — Yesterday and Last 2 Weeks

Now
59 °F

Cool.


Feels Like: 59 °F
Forecast: 53 / 71 °F
Wind: 2 mph from Southwest

Location: Bregenz

Current Time: Sep 30, 2016 at 10:32:47 PM

Latest Report: Sep 30, 2016 at 10:00 PM


Visibility: N/A

Pressure: 30.00 "Hg

Humidity: 71%

Dew Point: 49 °F

Location of Lindau (Bodensee)Location

Past Weather in Lindau (Bodensee) — Graph

°F

Lindau (Bodensee) Temperature Yesterday

Maximum temperature yesterday: 75 °F (at 5:00 PM)
Minimum temperature yesterday: 52 °F (at 6:00 AM)
Average temperature yesterday: 62 °F

High & Low Weather Summary for the Past Weeks

 TemperatureHumidityPressure
High75 °F (Sep 30, 5:00 PM)98% (Sep 24, 9:00 AM)30.45 "Hg (Sep 24, 9:00 AM)
Low48 °F (Sep 24, 7:00 AM)34% (Sep 30, 5:00 PM)29.90 "Hg (Sep 18, 3:00 PM)
Average59 °F82%30.13 "Hg
* Reported Sep 15 9:00 PM — Sep 30 9:00 PM, Lindau (Bodensee), Weather by CustomWeather, © 2016

Note: Actual official high and low records may vary slightly from our data, if they occured in-between our weather recording intervals... More about our weather records

Advertising

Lindau (Bodensee) Weather History for the Previous 24 Hours

Scroll right to see more
 ConditionsComfort  
Time TempWeatherWind HumidityBarometerVisibility
9:00 PM
Fri, Sep 30
60 °FCool.1 mph71%29.98 "HgN/A
8:00 PM60 °FCool.1 mph68%29.98 "HgN/A
7:00 PM62 °FCool.3 mph69%29.97 "HgN/A
6:00 PM69 °FMild.1 mph55%29.96 "HgN/A
5:00 PM75 °FMild.2 mph34%29.96 "HgN/A
4:00 PM75 °FMild.2 mph38%29.96 "HgN/A
3:00 PM74 °FMild.2 mph36%29.98 "HgN/A
2:00 PM73 °FPassing clouds.2 mph38%30.00 "Hg12 mi
1:00 PM72 °FMild.2 mph44%30.02 "HgN/A
12:00 PM69 °FMild.3 mph51%30.04 "HgN/A
11:00 AM65 °FSunny.6 mph62%30.06 "Hg12 mi
10:00 AM64 °FMild.3 mph60%30.06 "HgN/A
9:00 AM54 °FCool.1 mph82%30.09 "HgN/A
8:00 AM54 °FSunny.No wind84%30.09 "Hg12 mi
7:00 AM53 °FClear.2 mph86%30.09 "Hg12 mi
6:00 AM53 °FCool.3 mph85%30.09 "HgN/A
5:00 AM54 °FCool.3 mph82%30.09 "HgN/A
4:00 AM55 °FCool.5 mph79%30.10 "HgN/A
3:00 AM64 °FMild.5 mph60%30.09 "HgN/A
2:00 AM62 °FMild.5 mph64%30.10 "HgN/A
1:00 AM62 °FCool.6 mph65%30.11 "HgN/A
12:00 AM62 °FCool.5 mph66%30.12 "HgN/A
11:00 PM
Thu, Sep 29
59 °FCool.5 mph76%30.12 "HgN/A
10:00 PM63 °FMild.6 mph66%30.11 "HgN/A
Weather by CustomWeather, © 2016

See weather overviewHow to use our weather pages